Regional Weather Roundup
Issued by NWS State College, PA

Home | Current Version | Previous Version | Text Only | Print | Product List | Glossary On
Versions: 1 2 3 4 5 6 7 8 9 10 11 12 13 14 15 16 17 18 19 20 21 22 23 24 25 26 27 28 29 30 31 32 33 34 35 36 37 38 39 40 41 42 43 44 45 46 47 48 49 50
000
ASUS41 KCTP 211610
RWRCTP

REGIONAL WEATHER ROUNDUP
NATIONAL WEATHER SERVICE STATE COLLEGE PA
1200 PM EDT SUN SEP 21 2014

Note: "fair" indicates few or no clouds below 12,000 feet with no
significant weather and/or obstructions to visibility.

* = STATION THAT DOES NOT REPORT PRECIPITATION /E.G. RAIN...SNOW...ETC/
    THUNDER OR FOG.

PAZ002>004-007>009-013>016-020>023-029>032-211700-
WESTERN PENNSYLVANIA

CITY           SKY/WX    TMP DP  RH WIND       PRES   REMARKS
ERIE           MOSUNNY   73  61  65 W16G25    29.66F
MEADVILLE      PTSUNNY   70  62  76 W9        29.69F
FRANKLIN*      CLOUDY    73  64  73 SW12G25   29.74F
NEW CASTLE     NOT AVBL
BEAVER COUNTY  CLOUDY    73  64  73 SW14G21   29.75F
BUTLER*        PTSUNNY   70  63  78 SW10G20   29.77S
PITTSBURGH INT CLOUDY    72  65  78 SW10      29.76F
PITTSBURGH     CLOUDY    69  63  81 S7        29.77F
INDIANA*       CLOUDY    68  66  94 W12       29.82F
LATROBE        PTSUNNY   70  68  94 SW16      29.80F
WASHINGTON CO* CLOUDY    70  64  83 SW9       29.80S
$$

PAZ004>006-010>012-017>019-024>028-033>037-041-042-045-046-049>053-211700-
CENTRAL PENNSYLVANIA

CITY           SKY/WX    TMP DP  RH WIND       PRES   REMARKS
BRADFORD       CLOUDY    65  62  90 SW9       29.76R FOG
DUBOIS         CLOUDY    66  63  90 SW9G20    29.76F
CLEARFIELD     PTSUNNY   72  65  78 SW12G21   29.77F
JOHNSTOWN      CLOUDY    68  64  87 SW13G21   29.82F
ALTOONA        PTSUNNY   74  64  71 S9        29.80F
STATE COLLEGE  MOSUNNY   73  63  68 SW12      29.77F
WILLIAMSPORT   SUNNY     75  61  61 VRB3      29.75F
SELINSGROVE    SUNNY     74  60  61 S7        29.79F
FT INDIANTOWN  PTSUNNY   68  68 100 CALM      29.83F
CAPITAL CITY   SUNNY     72  61  68 E13       29.81F
HARRISBURG     MOSUNNY   73  61  65 SE6       29.81
YORK           SUNNY     77  63  61 MISG      29.82F
$$

PAZ038>040-043-044-047-048-054-055-060>062-067>071-211700-
EASTERN PENNSYLVANIA

CITY           SKY/WX    TMP DP  RH WIND       PRES   REMARKS
SCRANTON       SUNNY     78  59  51 VRB6      29.80F
MOUNT POCONO   MOSUNNY   71  56  58 S9        29.86F
ALLENTOWN      CLOUDY    66  59  78 CALM      29.84F
QUAKERTOWN*    PTSUNNY   72  61  68 CALM      29.84F
READING        CLOUDY    70  61  73 SW5       29.83F
LANCASTER      MOSUNNY   71  60  68 CALM      29.83F
COATESVILLE    PTSUNNY   70  64  83 CALM      29.85F
POTTSTOWN      PTSUNNY   68  60  75 CALM      29.85F
BLUE BELL      PTSUNNY   73  64  73 SW3       29.82F
DOYLESTOWN     PTSUNNY   74  62  66 VRB5      29.82F
WILLOW GROVE   NOT AVBL
NORTH PHILA    CLOUDY    72  64  76 CALM      29.84F
PHILADELPHIA   CLOUDY    72  65  78 E5        29.82F
$$


USA.gov is the U.S. government's official web portal to all federal, state and local government web resources and services.